Regional Weather Roundup
Issued by NWS Bismarck, ND

Home | Current Version | Previous Version | Text Only | Print | Product List | Glossary On
Versions: 1 2 3 4 5 6 7 8 9 10 11 12 13 14 15 16 17 18 19 20 21 22 23 24 25 26 27 28 29 30 31 32 33 34 35 36 37 38 39 40 41 42 43 44 45 46 47 48 49 50
000
ASUS43 KBIS 211002
RWRBIS

NWR BROADCAST TEXT
NATIONAL WEATHER SERVICE BISMARCK ND
400 AM CST TUE FEB 21 2017

NOTE: "FAIR" INDICATES FEW OR NO CLOUDS BELOW 12,000 FEET WITH NO
SIGNIFICANT WEATHER AND/OR OBSTRUCTIONS TO VISIBILITY.


CITY           SKY/WX    TMP DP  RH WIND       PRES   REMARKS
WILLISTON      FAIR      31  27  85 CALM      29.64S
MINOT          FAIR      34  29  82 SE3       29.65F
MINOT AFB      MOCLDY    33  31  90 S10       29.64F
BISMARCK       FAIR      35  30  82 E7        29.67F
DICKINSON      FAIR      38  27  64 W12       29.64R
GARRISON         N/A     32  28  85 SE3       29.64F
HETTINGER ARPT FAIR      35  28  75 W3        29.71S
JAMESTOWN      FAIR      32  31  96 S3        29.71F
CARRINGTON     PTSUNNY   34  32  93 S5        29.71F
HAZEN            N/A    N/A N/A N/A S3        29.66S
MANDAN         FAIR      36  30  80 S8        29.67F
STANLEY        FAIR      34  34 100 S7        29.65F
$$

CITY           SKY/WX    TMP DP  RH WIND       PRES   REMARKS
GRAND FORKS    CLOUDY    33  28  81 S7        29.73F
GRAND FORKS AF CLOUDY    32  32  99 S5        29.73S
DEVILS LAKE    MOCLDY    32  31  96 S7        29.71R
FARGO          FAIR      35  33  92 S6        29.77S
CAVALIER         N/A     28  28 100 SW3       29.73R
GRAFTON        FAIR      27  28 100 SE3       29.74S FOG
GWINNER        FAIR      36  34  93 SW12      29.77F
ROLLA          CLOUDY    34  34 100 SW5       29.69F
$$

CITY           SKY/WX    TMP DP  RH WIND       PRES   REMARKS
ABERDEEN       FAIR      34  31  88 SE10      29.76F
MOBRIDGE       FAIR      40  29  64 S14       29.67F
BUFFALO          N/A     44  32  62 SW16      29.67R
RAPID CITY     FAIR      56  29  35 SW16G23   29.78F
GLASGOW        FAIR      36  32  85 S8        29.64S
SIDNEY         FAIR      28  26  92 S3        29.66S
WOLF POINT     FAIR      29  27  92 S3        29.65S
GLENDIVE       FAIR      36  28  73 S6        29.68R
MILES CITY     FAIR      41  29  62 S6        29.69S
BAKER          FAIR      42  29  59 W10       29.70F
$$

CITY           SKY/WX    TMP DP  RH WIND       PRES   REMARKS
BILLINGS       MOCLDY    46  31  55 W9        29.70R
GREAT FALLS    FAIR      40  29  64 SW12      29.64F
$$




USA.gov is the U.S. government's official web portal to all federal, state and local government web resources and services.